Flag for U.S.A. Weather past 2 weeks in Lexington-Fayette, Kentucky, U.S.A.

Now
41 °F

Partly sunny.


Feels Like: 32 °F
Forecast: 33 / 52 °F
Wind: 18 mph from South

Location: Blue Grass Airport

Current Time: Jan 29, 2015 at 9:43:47 AM

Latest Report: Jan 29, 2015 at 8:54 AM


Visibility: 10 mi

Pressure: 29.95 "Hg

Humidity: 65%

Dew point: 30 °F

Location of Lexington-FayetteLocation

Historic Weather in Lexington-Fayette — Graph

°F

Lexington-Fayette temperature yesterday

Maximum temperature yesterday: 36 °F (at 3:54 PM)
Minimum temperature yesterday: 14 °F (at 4:54 AM)
Average temperature yesterday: 26 °F

Past Weeks' High & Low Weather Summary

 TemperatureHumidityPressure
High56 °F (Jan 20, 2:54 PM)100% (Jan 23, 10:54 PM)30.44 "Hg (Jan 23, 10:54 PM)
Low14 °F (Jan 28, 4:54 AM)34% (Jan 17, 4:54 PM)29.65 "Hg (Jan 25, 3:54 PM)
Average34 °F74%30.06 "Hg
* Reported Jan 14 3:54 PM — Jan 29 8:54 AM, Lexington-Fayette, Weather by CustomWeather, © 2014

Note: Actual official high and low records may vary slightly from our data, if they occured in-between our weather recording intervals... More about our weather records

Advertising

Lexington-Fayette weather history for previous 24 hours

 ConditionsComfort  
Time TempWeatherWind HumidityBarometerVisibility
8:54 AM
Jan 29
41 °FPartly sunny.18 mph65%29.95 "Hg10 mi
7:54 AM37 °FLight rain. Mostly cloudy.21 mph73%29.96 "Hg10 mi
6:54 AM37 °FLight rain. Mostly cloudy.18 mph62%29.99 "Hg10 mi
5:54 AM37 °FLight rain. Mostly cloudy.17 mph54%30.02 "Hg10 mi
4:54 AM36 °FPassing clouds.15 mph50%30.03 "Hg10 mi
3:54 AM35 °FClear.13 mph52%30.07 "Hg10 mi
2:54 AM34 °FClear.13 mph56%30.09 "Hg10 mi
1:54 AM33 °FClear.13 mph58%30.12 "Hg10 mi
12:54 AM33 °FClear.13 mph58%30.14 "Hg10 mi
11:54 PM
Jan 28
32 °FClear.13 mph64%30.16 "Hg10 mi
10:54 PM32 °FClear.10 mph61%30.18 "Hg10 mi
9:54 PM31 °FClear.8 mph61%30.22 "Hg10 mi
8:54 PM31 °FClear.8 mph61%30.24 "Hg10 mi
7:54 PM31 °FClear.7 mph61%30.26 "Hg10 mi
6:54 PM33 °FClear.5 mph56%30.27 "Hg10 mi
5:54 PM34 °FSunny.7 mph54%30.27 "Hg10 mi
4:54 PM35 °FSunny.10 mph50%30.28 "Hg10 mi
3:54 PM36 °FSunny.7 mph50%30.29 "Hg10 mi
2:54 PM35 °FSunny.7 mph50%30.31 "Hg10 mi
1:54 PM34 °FSunny.9 mph54%30.34 "Hg10 mi
12:54 PM31 °FSunny.8 mph57%30.37 "Hg10 mi
11:54 AM28 °FSunny.9 mph58%30.40 "Hg10 mi
10:54 AM26 °FSunny.7 mph60%30.41 "Hg10 mi
9:54 AM23 °FSunny.7 mph68%30.42 "Hg10 mi
Weather by CustomWeather, © 2014

See weather overviewHow to use our weather pages